Powrót do katalogu

STARLINK-32521

AktywnyŁącznośćVLEO
NORAD 62117·PAYLOAD·🇺🇸 United States

Wystrzelony Nov 27, 2024 z Cape Canaveral Space Force Station

Loading…

Następne Przeloty (najbliższe 24 godziny)

TLE

ŚwieżeSource: CelesTrak SupGP

Epoka: Sep 15, 2026, 02:28 UTC

1 62117C 24222D   26258.10326389  .00047040  00000+0  17037-2 0  2586
2 62117  43.0030 142.8375 0001399 277.5520 243.6023 15.27557032    17

Śledź STARLINK-32521 w czasie rzeczywistym z AllMySat

Download on the App Store